sat.trackr.live / text

‹ back to catalog

PROX-1

NORAD 44339 · 2019-036A

PAYLOAD ACTIVE UNKNOWN

§ Identity

Operator
Country
US
Launch date
2019-06-25
Launch site
AFETR
Launch vehicle
Mass (kg)
RCS (m²)

External: N2YO · Heavens-Above · Gunter

§ Orbital elements

Epoch: 2026-09-20T02:48:08.033760Z

Period
96.48 min
Inclination
23.9934°
Eccentricity
0.0005470
Mean motion
14.92594074 rev/d
Perigee alt
586.0 km
Apogee alt
593.7 km
Semi-major
6,968.0 km
B*
9.0741e-4
RAAN
199.1148°
Arg perigee
60.8600°
Mean anomaly
299.2447°
Rev number
38,766

§ Raw data

PROX-11 44339U 19036A   26263.11675965  .00009864  00000+0  90741-3 0  99912 44339  23.9934 199.1148 0005470  60.8600 299.2447 14.92594074387666

JSON: /api/v1/satellites/44339 · /tle

For live sub-satellite position, see the globe view (requires WebGL).

§ Visibility from observer

Set your observer location to see the next 7 days of passes ≥ 10°. The values pass through the URL so the page stays shareable.

No JS? Fill the form by hand. The geolocation button needs JavaScript.

§ Radio — SatNOGS DB

ModeDescriptionDownlinkUplink
FSK MODE S FSK38k4 2.307 GHz

1 transmitter · refreshed weekly from db.satnogs.org